[[{"header":{"parameterUnit":"m.s-1","parameterCategory":1,"la1":30.2991,"la2":30.254,"lo1":-89.0895,"lo2":-89.0444,"dy":0.0017,"dx":0.0017,"nx":28,"ny":28,"refTime":"2025-07-12T09:00:00:Z","depth":0,"parameterNumber":2,"parameterNumberName":"U-component_of_WINDS"},"data":[0,0,0,0,0,0,0,0,0,0,0,0,0,0,0,0,0,0,0,0,0,0,0,0,0,0,0,0,0,0,0,0,0,0,0,0,0,0,0,0,0,0,0,0,0,0,0,0,0,0,0,0,0,0,0,0,0,0,-0.0483,-0.0484,0,-0.0539,-0.0539,-0.054,-0.059,-0.0591,-0.0591,-0.0592,-0.0649,-0.065,-0.0651,0,0,0,0,0,0,0,0,0,0,0,0,0,-0.0422,-0.0422,-0.0483,-0.0484,-0.0485,-0.0539,-0.054,-0.054,-0.059,-0.0591,-0.0592,-0.0592,-0.0648,-0.065,-0.0651,0,0,0,0,0,0,0,0,0,0,0,0,0,-0.046,-0.0423,-0.0483,-0.0516,-0.052,-0.0539,-0.054,-0.054,-0.059,-0.0591,-0.0592,-0.0593,-0.0648,-0.0649,-0.0651,-0.0642,0,0,-0.0655,-0.0656,0,0,0,0,0,0,0,0,-0.0458,-0.0462,-0.0511,-0.0514,-0.0518,-0.0559,-0.0539,-0.0574,-0.059,-0.0563,-0.0592,-0.0593,-0.0618,-0.0622,-0.063,-0.0645,-0.0647,-0.0655,-0.0656,-0.0657,-0.0657,0,0,0,0,0,0,0,-0.0455,-0.046,-0.0505,-0.0511,-0.0516,-0.0528,-0.0535,-0.0546,-0.0585,-0.0566,-0.0569,-0.0575,-0.062,-0.0629,-0.0632,-0.0648,-0.0655,-0.0657,-0.0658,-0.0658,-0.066,-0.0659,0,0,0,0,0,0,-0.0447,-0.0457,-0.0504,-0.0507,-0.0489,-0.0529,-0.0536,-0.0545,-0.0585,-0.0592,-0.0574,-0.0577,-0.0626,-0.063,-0.0634,-0.0628,-0.0657,-0.0658,-0.0659,-0.0661,-0.066,-0.0659,0,0,0,0,0,0,-0.0446,-0.0451,-0.0501,-0.0483,-0.0491,-0.0529,-0.0538,-0.0545,-0.0554,-0.0592,-0.0599,-0.0576,-0.0627,-0.0632,-0.064,-0.0631,-0.0659,-0.066,-0.0661,-0.066,-0.0659,-0.0615,0,0,0,0,0,0,-0.0444,-0.045,-0.0446,-0.0483,-0.0491,-0.0506,-0.0537,-0.0546,-0.0556,-0.0561,-0.0595,-0.0602,-0.0628,-0.0638,-0.0642,-0.0633,-0.0661,-0.0663,-0.0661,-0.0659,-0.0617,-0.0612,-0.0608,0,0,0,0,0,-0.0441,-0.0431,-0.0446,-0.0451,-0.0488,-0.0505,-0.051,-0.0541,-0.0555,-0.0553,-0.0577,-0.0601,-0.0631,-0.0638,-0.0643,-0.0635,-0.0663,-0.0661,-0.066,-0.0619,-0.0613,-0.0608,0,0,0,0,0,0,-0.0393,-0.0437,-0.0453,-0.0455,-0.0476,-0.0513,-0.0511,-0.0533,-0.055,-0.0553,-0.059,-0.0598,-0.0602,-0.0619,-0.0626,-0.0629,-0.065,-0.0649,-0.0618,-0.0613,-0.0608,-0.0604,-0.0663,0,0,0,0,0,-0.0382,-0.0392,-0.043,-0.0428,-0.0437,-0.0472,-0.0481,-0.0503,-0.0526,-0.0535,-0.056,-0.0582,-0.0596,-0.0605,-0.0621,-0.062,-0.0629,-0.0617,-0.0612,-0.0608,-0.0607,-0.061,-0.0605,-0.0653,-0.0653,-0.0653,0,0,-0.036,-0.0386,-0.039,-0.0419,-0.0437,-0.0448,-0.0479,-0.0488,-0.0497,-0.0536,-0.0546,-0.0565,-0.0592,-0.0596,-0.0598,-0.061,-0.0596,-0.0605,-0.0602,-0.0603,-0.0607,-0.0603,-0.0599,-0.0651,-0.0652,-0.0652,0,0,-0.0326,-0.0346,-0.0347,-0.0365,-0.0394,-0.0417,-0.0417,-0.0452,-0.0466,-0.0476,-0.0507,-0.0517,-0.0541,-0.056,-0.0573,-0.0547,-0.057,-0.0551,-0.0527,-0.0529,-0.0525,-0.0522,-0.0515,-0.0511,-0.055,-0.0549,-0.0549,0,-0.0296,-0.0312,-0.0345,-0.0353,-0.0365,-0.0402,-0.0404,-0.042,-0.0452,-0.046,-0.0472,-0.0505,-0.0525,-0.0535,-0.0529,-0.0537,-0.054,-0.0548,-0.0523,-0.052,-0.0518,-0.0511,-0.0508,-0.0547,-0.0547,-0.0548,-0.0548,0,-0.0275,-0.0285,-0.0283,-0.0314,-0.0326,-0.033,-0.0364,-0.0373,-0.0393,-0.0416,-0.0427,-0.0452,-0.0475,-0.0478,-0.0498,-0.0491,-0.0498,-0.0516,-0.0538,-0.051,-0.0505,-0.0503,-0.0544,-0.0545,-0.0545,-0.0546,0,0,-0.0212,-0.0261,-0.026,-0.0275,-0.0309,-0.0318,-0.0325,-0.0347,-0.0355,-0.0375,-0.0383,-0.0403,-0.0421,-0.0435,-0.0457,-0.0459,-0.044,-0.0477,-0.0479,-0.0471,-0.0436,-0.0423,-0.0419,-0.0454,-0.0454,-0.0454,-0.0434,0,-0.0185,-0.0199,-0.0229,-0.0235,-0.0247,-0.0282,-0.0288,-0.031,-0.0332,-0.0345,-0.0368,-0.0383,-0.0404,-0.0413,-0.0416,-0.0441,-0.0433,-0.0443,-0.0463,-0.0464,-0.0457,-0.0416,-0.0402,-0.0382,-0.0432,-0.0431,-0.0431,0,-0.0155,-0.0175,-0.0182,-0.0217,-0.0223,-0.0228,-0.0252,-0.0263,-0.029,-0.0305,-0.0321,-0.0346,-0.0357,-0.0376,-0.0392,-0.0397,-0.0408,-0.0421,-0.0421,-0.0425,-0.0447,-0.0421,-0.0377,-0.0374,-0.0428,-0.0428,-0.0428,0,-0.0111,-0.0139,-0.0147,-0.0159,-0.0199,-0.0202,-0.022,-0.0247,-0.0259,-0.0279,-0.0288,-0.0309,-0.0321,-0.0337,-0.0367,-0.0378,-0.038,-0.0401,-0.0394,-0.0394,-0.0394,-0.0394,-0.0352,-0.0398,-0.0398,-0.0398,-0.0398,0,-0.0079,-0.0082,-0.0128,-0.0133,-0.0138,-0.0173,-0.0177,-0.0197,-0.0222,-0.0232,-0.0263,-0.0272,-0.0312,-0.0326,-0.0349,-0.036,-0.0364,-0.0378,-0.0385,-0.0376,-0.0374,-0.0384,-0.0387,-0.0397,-0.0397,-0.0397,-0.0397,0,-0.0031,-0.0061,-0.0073,-0.0111,-0.0121,-0.0123,-0.0156,-0.0163,-0.0186,-0.0199,-0.0204,-0.024,-0.0259,-0.029,-0.0317,-0.0334,-0.034,-0.035,-0.0331,-0.0335,-0.0327,-0.0328,-0.0291,-0.0289,-0.0334,-0.0333,-0.0333,0,-0.0009,-0.0012,-0.0051,-0.006,-0.0076,-0.0091,-0.0103,-0.0138,-0.015,-0.0181,-0.0184,-0.0205,-0.0223,-0.0251,-0.028,-0.0302,-0.0314,-0.0299,-0.0317,-0.0309,-0.0315,-0.0315,-0.0317,-0.0296,-0.0295,-0.0294,-0.0294,0,0.0033,0.0017,0.0,-0.0022,-0.0036,-0.0056,-0.0077,-0.0083,-0.0122,-0.0134,-0.0153,-0.0167,-0.0196,-0.0216,-0.0242,-0.026,-0.0284,-0.0288,-0.0288,-0.028,-0.0269,-0.0277,-0.0322,-0.0289,-0.0289,-0.029,-0.029,-0.029,0.0067,0.0061,0.0033,0.0015,-0.0005,-0.0024,-0.0033,-0.0057,-0.0074,-0.01,-0.0119,-0.0137,-0.0165,-0.0202,-0.0219,-0.0234,-0.0245,-0.0244,-0.0244,-0.0244,-0.0242,-0.0266,-0.0239,-0.0239,-0.0239,-0.024,-0.024,0,0.0105,0.0085,0.0069,0.004,0.0025,0.0004,-0.002,-0.0031,-0.0047,-0.0071,-0.0089,-0.0111,-0.0132,-0.0163,-0.0186,-0.0193,-0.0204,-0.0198,-0.0198,-0.0203,-0.023,-0.0228,-0.0188,-0.0188,-0.0188,-0.0188,-0.0188,-0.0188,0.0123,0.0112,0.0094,0.0072,0.0052,0.0033,0.0021,0.0003,-0.0017,-0.0041,-0.0058,-0.0078,-0.0106,-0.0131,-0.0152,-0.016,-0.0168,-0.0158,-0.0171,-0.0196,-0.02,-0.0205,-0.0204,-0.0159,-0.0159,-0.0143,-0.0143,-0.0142]},{"header":{"parameterUnit":"m.s-1","parameterCategory":1,"la1":30.2991,"la2":30.254,"lo1":-89.0895,"lo2":-89.0444,"dy":0.0017,"dx":0.0017,"nx":28,"ny":28,"refTime":"2025-07-12T09:00:00:Z","depth":0,"parameterNumber":3,"parameterNumberName":"V-component_of_WINDS"},"data":[0,0,0,0,0,0,0,0,0,0,0,0,0,0,0,0,0,0,0,0,0,0,0,0,0,0,0,0,0,0,0,0,0,0,0,0,0,0,0,0,0,0,0,0,0,0,0,0,0,0,0,0,0,0,0,0,0,0,1.962,1.9618,0,1.9461,1.946,1.9458,1.928,1.9277,1.9274,1.9272,1.9109,1.9107,1.9105,0,0,0,0,0,0,0,0,0,0,0,0,0,1.9766,1.9764,1.962,1.9618,1.9616,1.9462,1.9459,1.9457,1.928,1.9277,1.9274,1.9271,1.9109,1.9107,1.9105,0,0,0,0,0,0,0,0,0,0,0,0,0,1.9664,1.9763,1.962,1.9509,1.9497,1.9462,1.9459,1.9457,1.9281,1.9277,1.9273,1.9269,1.911,1.9107,1.9105,1.9166,0,0,1.9096,1.9095,0,0,0,0,0,0,0,0,1.967,1.9659,1.9527,1.9516,1.9503,1.9386,1.9451,1.9359,1.9282,1.9363,1.9272,1.9267,1.9204,1.9193,1.9172,1.9158,1.9151,1.9096,1.9094,1.9093,1.9092,0,0,0,0,0,0,0,1.9678,1.9665,1.9557,1.9525,1.9511,1.9466,1.9447,1.9433,1.9308,1.9356,1.9342,1.9326,1.9197,1.9176,1.9167,1.9149,1.9096,1.9093,1.9092,1.909,1.9174,1.9177,0,0,0,0,0,0,1.9702,1.9672,1.9562,1.9552,1.9579,1.9466,1.9445,1.9428,1.9307,1.9285,1.9329,1.9318,1.9182,1.9171,1.9161,1.9223,1.9093,1.909,1.9089,1.917,1.9175,1.9179,0,0,0,0,0,0,1.9706,1.9694,1.9568,1.9608,1.9589,1.9468,1.945,1.9427,1.9405,1.9288,1.9264,1.9331,1.9179,1.9165,1.9165,1.9215,1.9089,1.9086,1.9165,1.9171,1.9177,1.9349,0,0,0,0,0,0,1.971,1.9696,1.9719,1.961,1.9588,1.9577,1.9453,1.9426,1.9401,1.9385,1.9283,1.9262,1.9175,1.9171,1.9163,1.9208,1.9084,1.916,1.9168,1.9175,1.9338,1.936,1.9378,0,0,0,0,0,1.9716,1.9774,1.9721,1.9709,1.9614,1.9581,1.9567,1.9466,1.9406,1.9427,1.9351,1.9265,1.9211,1.9172,1.9162,1.9207,1.9157,1.9166,1.9174,1.9329,1.9356,1.9378,0,0,0,0,0,0,1.9893,1.9758,1.9698,1.9723,1.9664,1.9551,1.9575,1.9498,1.9455,1.9442,1.9317,1.9296,1.9311,1.9258,1.9218,1.9259,1.9171,1.9178,1.9292,1.9316,1.9336,1.9348,1.9082,0,0,0,0,0,1.9935,1.9919,1.9802,1.9835,1.9809,1.9698,1.9679,1.9606,1.954,1.9514,1.9438,1.9378,1.9346,1.9328,1.9293,1.9329,1.9303,1.9355,1.9375,1.9392,1.94,1.9413,1.9434,1.9208,1.9208,1.9207,0,0,2.0021,1.9945,1.9943,1.9869,1.9815,1.98,1.9678,1.9669,1.9656,1.9513,1.9508,1.9451,1.9374,1.9392,1.9396,1.9349,1.9457,1.9404,1.9418,1.9416,1.9424,1.9446,1.9465,1.9214,1.9213,1.9212,0,0,2.017,2.0113,2.0132,2.0081,2.0,1.9925,1.993,1.9827,1.9783,1.9777,1.9668,1.9651,1.96,1.9549,1.9517,1.9645,1.9563,1.9636,1.9742,1.9755,1.9773,1.9788,1.9832,1.985,1.9644,1.9645,1.9645,0,2.0288,2.0262,2.0153,2.0149,2.0119,1.9987,2.0006,1.996,1.9873,1.9855,1.9803,1.9735,1.9674,1.9677,1.9708,1.9687,1.9687,1.9648,1.978,1.9794,1.9806,1.9847,1.9864,1.9654,1.9653,1.9652,1.9651,0,2.0409,2.0394,2.0419,2.0338,2.031,2.0318,2.0208,2.0192,2.0121,2.0051,2.0044,1.9967,1.9912,1.9907,1.9838,1.99,1.9873,1.9803,1.9712,1.9839,1.9875,1.989,1.9668,1.9664,1.9661,1.9659,0,0,2.0668,2.0523,2.0534,2.0495,2.0395,2.038,2.0381,2.0327,2.0316,2.0259,2.0256,2.0215,2.0148,2.0111,2.0034,2.0047,2.015,1.9973,1.9969,2.0008,2.0211,2.0265,2.0285,2.0095,2.0098,2.01,2.0217,0,2.0799,2.0793,2.0692,2.0714,2.0697,2.0571,2.057,2.0509,2.0443,2.0418,2.0344,2.0316,2.0231,2.0207,2.0214,2.0137,2.0189,2.0126,2.009,2.009,2.0113,2.0304,2.0361,2.0476,2.0231,2.0233,2.0235,0,2.0951,2.0903,2.0924,2.0821,2.081,2.0812,2.0754,2.0731,2.0658,2.0609,2.0567,2.0479,2.0471,2.0385,2.0371,2.0331,2.0309,2.0268,2.027,2.0263,2.017,2.0301,2.0511,2.0528,2.0256,2.0255,2.0253,0,2.1136,2.1076,2.108,2.105,2.0931,2.0935,2.0885,2.0808,2.0781,2.073,2.0711,2.066,2.0631,2.0593,2.0493,2.044,2.0489,2.0396,2.0447,2.045,2.0463,2.0464,2.0672,2.0451,2.0451,2.045,2.045,0,2.1293,2.131,2.1161,2.1163,2.1177,2.1061,2.1078,2.1016,2.0948,2.0935,2.0822,2.0812,2.0681,2.0655,2.0577,2.0576,2.0564,2.0523,2.0502,2.0533,2.0538,2.0517,2.0507,2.0455,2.0454,2.0453,2.0452,0,2.1502,2.1403,2.1398,2.1285,2.1257,2.1273,2.1175,2.1172,2.1098,2.1083,2.1072,2.0956,2.092,2.0816,2.0754,2.0701,2.0722,2.0683,2.0747,2.0734,2.079,2.0786,2.0992,2.1012,2.078,2.0782,2.0784,0,2.1609,2.1618,2.1506,2.1489,2.1445,2.1419,2.1391,2.1276,2.1251,2.1167,2.1173,2.1128,2.1086,2.1033,2.0943,2.0894,2.0852,2.0927,2.0844,2.0874,2.0851,2.0852,2.0852,2.0946,2.0949,2.0951,2.0953,0,2.1808,2.1758,2.1722,2.1669,2.1638,2.1591,2.1537,2.1529,2.14,2.1377,2.1339,2.1306,2.1241,2.1197,2.1133,2.108,2.0995,2.098,2.0989,2.1021,2.1058,2.1037,2.0796,2.0976,2.0974,2.0972,2.0971,2.097,2.1967,2.197,2.1891,2.1854,2.1801,2.1753,2.1743,2.1668,2.1634,2.1572,2.1506,2.1475,2.1397,2.1303,2.1256,2.1228,2.1183,2.1197,2.12,2.1205,2.1219,2.1062,2.1216,2.1215,2.1215,2.1214,2.1213,0,2.216,2.2102,2.207,2.1997,2.1968,2.189,2.1825,2.1806,2.178,2.1715,2.1676,2.163,2.1586,2.1492,2.1438,2.1434,2.1394,2.1424,2.1423,2.1412,2.1263,2.126,2.1458,2.1458,2.1458,2.1458,2.1458,2.1458,2.2257,2.2255,2.2196,2.2167,2.2108,2.2077,2.2046,2.2,2.1948,2.1902,2.1865,2.1804,2.1726,2.1666,2.1622,2.1594,2.158,2.1623,2.1584,2.1446,2.1423,2.1401,2.1397,2.1621,2.1621,2.1735,2.1736,2.1737]}]]